This is the latest recevied weather packets stored in our database for station/object CE3TL-WX. If no packets are shown the sender has not sent any weather packets the latest 10 day(s).
| Time | Temp. | Humidity | Pressure | Rain* | Wind** | Luminosity | Snow |
|---|---|---|---|---|---|---|---|
| 1777481777 | 20° C | 47% | 1022.3 hPa | - | - | - | - |
| 1777481242 | 19.44° C | 50% | 1022.4 hPa | - | - | - | - |
| 1777480709 | 18.89° C | 50% | 1022.4 hPa | - | - | - | - |
| 1777480175 | 18.89° C | 51% | 1022.7 hPa | - | - | - | - |
| 1777479641 | 18.89° C | 51% | 1022.7 hPa | - | - | - | - |
| 1777479106 | 18.33° C | 53% | 1022.9 hPa | - | - | - | - |
| 1777478569 | 18.33° C | 53% | 1023.1 hPa | - | - | - | - |
| 1777478036 | 17.78° C | 54% | 1023.2 hPa | - | - | - | - |
| 1777477502 | 17.78° C | 54% | 1023.2 hPa | - | - | - | - |
| 1777476969 | 17.22° C | 55% | 1023.3 hPa | - | - | - | - |
| 1777476434 | 17.22° C | 55% | 1023.3 hPa | - | - | - | - |
| 1777475900 | 17.22° C | 56% | 1023.4 hPa | - | - | - | - |
| 1777475366 | 16.67° C | 56% | 1023.4 hPa | - | - | - | - |
| 1777474831 | 16.11° C | 54% | 1023.4 hPa | - | - | - | - |
| 1777474298 | 16.11° C | 55% | 1023.5 hPa | - | - | - | - |
| 1777473765 | 16.11° C | 56% | 1023.5 hPa | - | - | - | - |
| 1777473230 | 15.56° C | 59% | 1023.7 hPa | - | - | - | - |
| 1777472697 | 15° C | 59% | 1023.7 hPa | - | - | - | - |
| 1777472163 | 15° C | 60% | 1023.9 hPa | - | - | - | - |
| 1777471629 | 14.44° C | 60% | 1023.9 hPa | - | - | - | - |
| 1777471094 | 14.44° C | 64% | 1023.8 hPa | - | - | - | - |
| 1777470559 | 14.44° C | 66% | 1023.8 hPa | - | - | - | - |
| 1777470025 | 13.89° C | 67% | 1023.9 hPa | - | - | - | - |
| 1777469490 | 13.89° C | 68% | 1024.1 hPa | - | - | - | - |
| 1777468956 | 13.89° C | 68% | 1024 hPa | - | - | - | - |
* Rain since midnight (hover to see other rain measurements)
** Current wind speed in m/s (hover to see current wind gust speed)